Temperature
18 18 18 18 18 18 18 18 18 18 18 18 18 18 18 18 18 18 18 18 17 17 17 17 17 17 17 17 17 17 17 16 16 16 16 16 15 15 15 15 15 15 15
18 18 18 18 18 18 18 18 18 18 18 18 18 18 18 18 18 18 18 18 18 17 17 17 17 17 17 17 17 17 17 16 16 16 16 16 16 15 15 15 15 15 15
18 18 18 18 18 17 17 17 18 18 18 18 18 18 18 18 18 18 18 18 18 18 17 17 18 18 17 17 17 17 17 17 17 16 16 16 16 16 15 15 15 15 15
18 18 18 18 18 18 18 18 18 17 18 18 18 18 18 18 18 18 18 18 18 18 18 18 18 18 17 17 17 17 17 17 17 17 16 16 16 16 15 15 15 15 15
18 18 18 18 18 18 18 18 18 17 18 18 17 18 18 18 19 19 19 19 18 18 18 18 18 18 17 17 17 17 17 17 17 17 16 16 16 16 16 15 15 15 15
18 18 18 18 18 18 18 18 17 17 17 17 17 17 17 18 18 19 19 19 19 18 18 18 18 18 18 17 17 17 17 17 17 17 16 16 16 16 16 15 15 15 15
18 18 18 18 18 18 17 17 17 16 16 17 16 17 17 17 18 18 19 19 19 19 19 18 18 18 18 18 18 17 17 17 17 16 16 16 16 16 16 15 15 15 15
18 18 18 18 18 17 17 17 16 16 16 16 16 16 16 16 18 18 19 19 19 19 19 19 19 18 18 18 18 18 17 17 17 16 16 16 16 16 15 15 15 15 15
18 18 18 18 17 17 17 17 16 16 16 15 15 15 15 15 16 17 18 19 19 19 19 19 19 18 18 18 18 18 17 17 17 17 16 16 16 16 16 15 15 15 15
17 17 17 17 17 17 16 16 16 15 15 15 15 15 15 15 15 16 17 18 18 19 19 19 18 18 18 18 18 18 18 17 17 17 17 16 16 16 16 15 15 15 15
17 17 17 17 17 16 16 15 15 15 14 14 14 14 14 15 15 15 15 17 17 18 18 18 18 18 18 18 18 18 18 17 17 17 17 17 17 17 16 15 15 15 15
16 17 16 16 16 15 15 15 15 14 14 14 14 14 14 14 14 15 15 16 16 17 17 17 17 17 17 17 17 17 17 17 17 17 17 17 17 17 16 16 15 15 15
16 16 16 15 15 15 15 15 14 14 14 14 14 14 14 14 14 14 15 15 15 16 16 16 16 16 17 17 17 17 17 17 17 17 17 17 17 17 16 16 15 15 15
16 15 15 15 14 14 14 14 14 14 14 14 13 14 14 14 14 14 14 14 14 15 15 15 16 16 16 16 16 16 16 16 16 16 17 17 16 16 16 16 15 15 15
15 15 14 14 14 14 14 14 14 14 14 13 13 13 13 13 13 13 13 13 13 13 14 14 15 15 15 16 16 16 16 16 16 16 16 16 16 16 16 16 15 15 15
14 14 14 14 13 13 13 13 14 14 13 13 13 13 13 13 13 13 13 13 13 13 13 13 14 14 15 15 15 15 15 15 15 15 15 15 15 15 15 15 15 15 14
14 13 13 13 13 13 13 13 13 13 13 13 13 13 13 13 13 13 13 13 13 13 13 13 14 14 14 15 15 15 15 15 15 15 15 15 15 15 15 15 14 14 14
13 13 13 13 13 12 12 12 12 12 12 12 12 12 12 12 12 12 12 13 13 13 13 13 14 14 14 14 14 14 14 14 14 15 14 14 14 14 14 14 14 14 13
13 13 13 13 12 12 12 12 11 11 11 12 12 12 12 11 11 11 12 12 12 13 13 13 13 14 14 14 14 14 14 14 14 14 14 14 14 14 14 14 13 13 13
13 13 13 12 12 11 11 11 11 11 11 11 11 11 11 11 11 11 11 12 12 12 12 13 13 13 13 13 13 14 14 14 13 14 14 14 14 14 14 14 14 13 13
12 12 12 12 11 11 11 11 11 11 11 11 11 11 11 11 11 11 11 11 11 12 12 12 12 12 12 12 12 13 13 13 13 13 14 14 14 14 14 14 14 14 13
12 12 12 12 12 11 11 11 11 11 11 11 11 11 11 11 11 11 11 11 11 11 11 11 11 11 11 11 12 12 12 13 13 13 13 13 14 14 14 14 14 14 13
11 12 12 12 11 11 11 11 11 11 11 11 11 11 11 11 11 11 11 11 11 11 11 11 11 11 11 11 11 12 12 12 12 12 13 13 13 13 14 14 14 14 13
11 11 11 11 11 11 11 11 11 11 11 11 11 11 11 11 11 11 11 11 11 11 11 11 11 11 11 11 11 11 11 11 12 12 12 12 12 13 13 13 14 14 14
11 11 11 11 11 11 11 10 10 10 10 10 10 10 10 10 10 11 11 11 11 11 11 11 11 11 11 11 11 11 11 11 11 11 11 11 11 11 12 12 13 13 13
10 10 11 11 11 11 10 10 10 10 10 10 10 10 10 10 10 10 10 11 11 10 11 11 11 11 11 11 11 11 11 11 11 10 10 10 10 11 11 11 12 12 12
Wind_Speed
6 7 7 9 10 11 9 8 8 8 8 10 11 11 11 13 13 13 13 17 18 18 17 16 15 15 16 17 17 16 16 16 16 17 18 19 20 19 21 23 23 22 21
9 7 7 7 9 11 10 9 8 6 6 7 9 10 11 13 13 14 14 15 18 19 19 17 16 15 15 16 16 15 15 15 16 16 16 17 18 19 20 23 25 24 23
12 9 7 7 8 11 10 7 7 6 6 7 10 11 10 11 12 13 14 14 15 17 18 17 16 15 15 16 16 16 15 16 16 16 16 16 17 18 19 23 26 26 25
14 9 7 8 10 9 6 6 6 5 6 7 8 8 9 8 11 12 13 14 14 13 15 16 17 16 16 16 17 16 16 16 16 16 16 16 17 17 18 21 26 28 27
12 9 6 7 8 5 5 6 6 5 6 7 8 8 8 9 10 10 11 12 13 14 13 15 17 17 17 17 17 17 16 16 17 17 17 17 17 18 18 20 26 29 29
7 6 4 5 4 4 6 5 7 6 6 7 8 9 9 10 10 11 12 10 11 13 14 14 13 14 17 19 19 18 17 17 18 18 19 19 18 18 18 19 24 30 31
3 2 1 2 3 4 6 7 6 8 6 5 5 7 8 10 11 12 11 10 11 11 12 12 12 12 12 16 19 19 19 19 19 19 20 19 19 18 17 18 22 29 32
4 2 2 2 3 4 7 7 7 6 5 5 5 5 6 5 6 9 9 10 10 8 9 10 11 11 11 11 13 17 18 18 19 19 19 19 18 18 17 18 21 29 32
3 2 2 2 4 4 6 8 8 9 8 6 7 7 6 5 4 4 4 5 6 6 7 7 8 10 11 12 11 13 16 16 17 17 16 16 16 16 16 17 19 28 33
1 1 2 2 3 4 6 7 8 8 10 8 5 7 9 6 5 5 4 3 3 4 5 5 5 7 9 10 11 13 15 15 14 14 14 14 14 14 14 16 18 25 32
1 1 2 2 3 3 4 5 6 6 6 7 6 4 6 7 8 7 7 5 3 3 3 4 4 5 7 9 10 12 13 11 10 10 11 12 14 14 15 16 16 22 31
0 2 2 2 3 3 4 5 5 6 5 6 6 5 4 4 4 6 9 7 5 3 3 4 4 5 5 7 9 10 9 8 6 7 9 12 14 16 17 18 18 20 29
0 2 2 3 3 4 5 5 5 6 6 5 4 3 3 4 4 4 5 4 3 3 3 3 3 3 3 4 5 6 6 5 4 5 8 11 13 15 16 18 19 20 27
0 2 3 3 4 4 5 5 5 5 5 4 3 2 1 2 1 1 1 1 2 2 2 4 3 3 2 1 1 3 2 3 4 4 7 8 9 10 12 15 17 21 28
1 3 3 4 4 4 5 5 4 5 5 3 3 3 3 3 4 3 3 2 1 2 2 3 3 3 2 1 2 2 3 4 3 3 4 5 5 4 7 13 16 22 30
2 3 4 4 4 4 4 4 3 4 4 3 3 3 3 3 3 3 3 3 1 1 3 3 3 4 3 2 3 3 5 5 3 1 1 1 2 4 8 15 21 27 31
4 4 4 4 4 4 4 4 4 4 4 4 5 4 5 4 4 4 3 3 2 2 4 4 4 4 3 3 2 4 5 4 3 3 1 2 5 8 13 18 23 27 29
6 6 5 5 5 5 5 5 5 5 5 6 6 6 6 5 6 4 4 3 2 2 3 5 4 3 4 3 3 4 4 4 3 4 3 4 6 9 14 18 22 25 26
7 7 7 6 6 6 6 6 6 7 7 7 7 7 6 5 5 4 4 4 4 3 2 2 3 2 3 2 2 2 3 2 2 4 4 5 7 10 14 18 21 23 25
7 6 6 6 5 6 7 7 7 7 7 7 7 7 6 5 5 5 4 5 5 5 4 3 2 3 3 3 2 2 2 2 2 2 3 4 7 9 12 15 18 21 23
6 6 6 6 6 6 6 6 7 7 7 7 8 7 7 8 7 5 3 4 5 5 5 4 4 4 4 5 4 2 2 2 2 2 3 3 4 5 7 11 14 17 19
6 6 6 5 7 6 9 11 9 9 9 9 8 8 8 10 10 10 9 8 7 5 5 5 5 5 6 5 6 4 2 2 2 1 3 3 3 4 6 8 13 15 17
5 5 4 5 6 7 12 13 13 9 9 8 8 8 8 10 11 9 9 10 10 10 7 3 4 5 5 5 7 6 5 2 1 1 1 1 1 2 3 5 10 14 17
4 4 4 5 6 7 11 13 12 9 8 8 8 8 8 10 11 9 8 10 11 11 9 6 4 5 4 6 4 3 4 3 3 4 3 2 1 1 0 2 5 8 11
5 4 4 6 7 6 7 9 8 7 7 8 8 9 9 9 13 12 11 10 10 10 9 10 10 10 12 13 10 7 7 6 4 4 5 3 2 1 1 1 3 6 8
7 7 8 7 8 7 8 8 7 6 6 5 6 8 11 11 12 12 9 8 9 7 7 9 10 11 11 12 14 10 7 6 3 3 4 3 2 2 2 1 1 2 3
Wind_Direction
238 244 250 257 262 262 256 255 254 254 259 267 266 261 262 260 259 258 261 266 267 266 265 264 264 262 258 253 250 249 249 251 250 247 245 245 245 240 227 215 209 207 204
235 235 244 250 258 258 254 250 250 252 259 263 268 265 263 263 262 260 260 263 264 262 261 261 262 262 261 257 252 248 247 249 250 250 248 247 246 242 230 217 210 207 205
234 234 240 249 252 254 254 251 252 252 259 262 266 268 266 262 261 262 261 259 260 259 256 257 258 258 258 258 254 248 246 247 249 250 251 251 250 246 236 220 210 206 203
231 229 235 245 247 244 241 243 247 252 256 258 264 270 271 270 267 265 264 258 253 250 250 252 254 254 254 256 255 249 244 246 249 250 250 250 250 247 241 225 212 205 201
228 221 229 243 250 244 243 246 248 242 258 263 265 269 271 272 273 271 264 258 248 242 243 247 250 251 252 252 250 247 244 245 249 253 254 253 251 248 242 230 215 204 199
215 208 220 244 253 258 262 259 262 258 256 265 274 274 272 271 273 271 267 262 252 242 237 239 246 251 249 247 243 241 242 245 249 254 256 255 252 248 241 231 217 204 198
147 144 218 295 291 276 278 280 279 275 264 253 269 277 269 262 262 265 261 256 252 241 231 231 236 240 245 244 242 239 240 245 248 252 255 256 254 250 242 230 217 204 198
80 59 9 321 306 294 289 280 269 268 259 228 240 270 286 289 263 256 256 252 250 239 233 229 230 233 237 240 239 235 238 247 252 253 255 258 258 251 243 231 217 204 198
65 42 353 323 308 294 290 286 276 269 272 258 231 243 262 265 298 297 280 272 260 242 237 231 232 234 237 238 239 237 241 248 255 258 260 265 263 252 242 231 219 204 197
27 12 350 337 320 308 298 295 287 276 276 277 261 237 243 257 263 294 301 297 287 258 248 239 242 243 240 237 234 236 241 242 244 253 263 269 266 254 242 232 224 209 198
298 5 14 7 354 339 329 322 313 298 283 280 273 256 252 251 242 250 276 291 301 282 262 259 260 258 247 236 235 237 236 232 234 249 264 270 267 258 246 235 230 214 198
293 21 20 8 352 346 341 333 320 311 299 286 276 254 244 246 241 240 249 262 276 290 290 275 264 264 259 244 238 234 225 215 228 253 269 274 270 260 247 235 227 213 197
41 5 6 349 342 338 337 336 326 321 312 304 297 284 266 255 247 238 242 258 264 285 304 300 277 283 278 252 234 210 198 210 240 266 281 282 276 263 244 228 219 207 190
355 350 350 341 334 337 340 339 332 332 325 318 326 344 355 340 327 298 277 279 296 300 303 299 310 302 306 275 200 173 196 230 252 284 294 293 286 267 235 212 204 189 175
32 18 10 2 354 348 344 341 339 343 346 1 12 28 39 26 32 23 14 14 341 315 300 301 306 312 322 280 195 195 233 236 245 284 302 312 311 269 204 185 175 164 160
52 39 29 17 4 351 345 345 339 344 359 11 27 50 49 36 34 27 14 357 329 267 275 276 267 282 289 269 220 215 231 226 217 237 284 7 60 111 139 150 149 150 153
48 46 32 20 5 350 345 349 347 352 18 33 36 40 33 25 23 18 17 4 344 308 279 285 268 274 277 269 223 218 224 217 210 210 186 124 114 118 128 138 143 147 154
60 56 48 39 23 9 3 3 0 16 38 44 39 38 32 36 38 25 24 16 353 320 284 298 305 306 287 279 239 220 215 214 209 202 178 147 137 133 135 140 145 150 154
68 59 54 42 25 14 14 22 39 50 53 50 42 36 22 24 28 19 20 14 356 339 315 304 308 303 306 316 265 220 215 209 208 192 173 152 147 146 146 149 152 155 159
78 66 56 44 30 27 32 43 55 58 55 47 38 30 18 12 5 2 9 6 357 357 356 350 326 324 319 316 300 254 227 208 207 185 162 149 151 153 157 159 161 165 171
84 75 63 48 37 37 39 59 63 60 53 44 33 28 28 33 28 23 16 4 4 9 9 12 4 1 360 352 341 314 242 195 198 179 162 156 155 162 171 176 179 183 187
89 78 64 59 50 46 64 73 78 69 57 46 31 19 26 31 23 29 33 36 32 22 15 19 18 14 2 349 337 328 301 193 200 181 169 163 167 186 189 195 198 200 203
100 89 73 72 68 62 82 84 81 78 63 46 34 26 29 20 18 16 21 34 36 34 32 24 30 14 353 334 338 351 356 353 26 37 115 137 139 206 200 205 206 212 216
109 94 78 83 84 80 102 99 91 81 69 52 41 34 34 25 17 11 29 38 38 34 27 32 28 3 345 336 337 336 338 360 41 31 28 77 59 17 358 196 198 207 217
107 90 78 80 87 77 96 106 95 83 71 55 42 38 38 35 16 26 39 37 35 29 27 43 50 41 32 27 20 26 24 30 27 19 16 42 22 352 324 263 202 203 207
111 102 83 72 79 73 72 85 99 91 77 58 40 32 31 30 26 34 41 38 31 9 10 29 32 28 30 29 29 30 21 27 21 16 12 26 7 0 346 312 269 215 204
Height
1549 1549 1549 1550 1550 1550 1550 1550 1550 1549 1548 1547 1547 1546 1546 1545 1544 1543 1542 1542 1541 1540 1539 1539 1540 1540 1540 1540 1541 1541 1540 1540 1540 1540 1540 1541 1541 1542 1543 1544 1546 1548 1550
1546 1547 1547 1547 1547 1547 1547 1547 1546 1546 1545 1544 1543 1543 1542 1541 1540 1539 1538 1538 1537 1537 1536 1535 1536 1536 1536 1537 1537 1537 1537 1537 1536 1536 1536 1537 1537 1538 1538 1540 1541 1544 1546
1543 1544 1544 1544 1544 1544 1544 1543 1543 1542 1541 1540 1540 1539 1538 1537 1536 1535 1534 1533 1533 1533 1532 1531 1531 1532 1532 1533 1533 1534 1534 1534 1534 1533 1533 1533 1533 1533 1534 1535 1536 1538 1541
1540 1540 1541 1541 1541 1541 1540 1540 1539 1538 1537 1536 1535 1535 1534 1532 1531 1530 1530 1529 1529 1529 1529 1528 1528 1528 1528 1529 1529 1530 1530 1530 1531 1531 1530 1530 1529 1529 1529 1530 1531 1533 1536
1536 1536 1537 1537 1537 1537 1536 1536 1535 1534 1533 1532 1531 1530 1529 1528 1527 1526 1525 1524 1524 1524 1524 1524 1524 1524 1524 1525 1525 1526 1526 1527 1527 1527 1527 1526 1525 1525 1525 1525 1526 1528 1531
1532 1532 1533 1533 1533 1533 1532 1531 1530 1529 1527 1527 1525 1523 1523 1522 1521 1520 1519 1519 1519 1519 1519 1520 1520 1519 1520 1520 1521 1521 1522 1523 1523 1523 1523 1522 1521 1520 1520 1519 1520 1522 1525
1528 1528 1529 1529 1529 1528 1526 1526 1524 1522 1521 1521 1519 1516 1515 1515 1514 1513 1512 1512 1512 1513 1513 1514 1515 1515 1515 1515 1516 1516 1517 1518 1518 1518 1518 1517 1517 1515 1514 1514 1514 1516 1519
1524 1524 1524 1524 1524 1522 1520 1519 1518 1516 1514 1515 1514 1511 1508 1507 1506 1506 1505 1505 1506 1507 1507 1508 1509 1510 1510 1510 1511 1511 1512 1513 1513 1513 1513 1512 1511 1509 1508 1508 1509 1510 1513
1519 1519 1519 1519 1518 1516 1514 1513 1512 1509 1507 1507 1508 1508 1505 1501 1500 1500 1500 1500 1500 1500 1501 1502 1503 1504 1505 1505 1505 1506 1507 1507 1508 1508 1507 1506 1504 1502 1501 1501 1502 1504 1507
1514 1514 1514 1513 1513 1511 1509 1507 1506 1504 1502 1500 1500 1501 1501 1499 1499 1496 1496 1497 1496 1496 1496 1497 1497 1498 1499 1499 1500 1500 1501 1501 1502 1501 1500 1499 1497 1495 1494 1494 1496 1498 1502
1509 1510 1510 1509 1508 1507 1505 1503 1501 1500 1498 1496 1495 1495 1494 1494 1494 1494 1492 1492 1492 1492 1492 1492 1492 1493 1493 1494 1494 1494 1495 1495 1496 1495 1494 1492 1490 1488 1487 1488 1489 1492 1496
1505 1505 1506 1505 1505 1503 1502 1500 1498 1496 1494 1492 1491 1490 1490 1489 1489 1489 1489 1488 1488 1488 1488 1488 1488 1488 1489 1489 1489 1489 1489 1490 1490 1489 1488 1485 1482 1480 1480 1481 1483 1486 1491
1501 1501 1502 1502 1501 1500 1499 1498 1496 1493 1491 1490 1488 1487 1486 1486 1486 1486 1485 1484 1484 1483 1484 1484 1484 1484 1484 1484 1484 1484 1484 1485 1485 1483 1481 1478 1475 1473 1473 1474 1477 1481 1486
1497 1498 1498 1498 1498 1498 1497 1496 1494 1491 1489 1487 1486 1485 1485 1484 1484 1483 1483 1482 1481 1480 1480 1480 1481 1481 1481 1480 1479 1479 1480 1480 1480 1478 1475 1473 1470 1468 1468 1469 1472 1477 1481
1495 1495 1496 1496 1496 1495 1494 1494 1492 1490 1488 1486 1485 1484 1484 1483 1482 1482 1481 1480 1480 1478 1477 1477 1477 1477 1477 1476 1476 1476 1476 1476 1475 1473 1471 1469 1467 1466 1465 1466 1469 1473 1478
1493 1494 1494 1494 1493 1493 1492 1491 1490 1488 1487 1486 1485 1484 1484 1482 1482 1480 1480 1479 1478 1478 1476 1475 1475 1474 1474 1473 1472 1472 1472 1473 1472 1470 1468 1467 1466 1465 1464 1465 1468 1471 1476
1492 1493 1493 1493 1493 1492 1491 1490 1488 1488 1487 1486 1485 1484 1483 1482 1481 1480 1479 1478 1477 1476 1475 1473 1472 1471 1470 1470 1469 1469 1469 1469 1469 1468 1467 1466 1466 1465 1465 1466 1468 1472 1476
1491 1492 1492 1492 1492 1491 1490 1489 1488 1487 1486 1486 1485 1484 1483 1481 1480 1479 1478 1477 1475 1474 1473 1471 1470 1468 1467 1467 1466 1466 1466 1466 1466 1466 1466 1465 1465 1465 1465 1467 1469 1472 1476
1490 1491 1491 1491 1491 1490 1489 1489 1488 1488 1487 1486 1485 1484 1483 1481 1480 1479 1477 1476 1475 1473 1471 1470 1468 1467 1465 1464 1463 1463 1463 1463 1464 1465 1465 1465 1465 1465 1466 1468 1470 1473 1477
1491 1491 1491 1491 1491 1491 1490 1490 1489 1489 1488 1487 1486 1485 1483 1482 1481 1480 1478 1476 1474 1472 1470 1468 1467 1465 1463 1461 1460 1460 1460 1461 1462 1463 1464 1465 1466 1467 1468 1470 1472 1475 1478
1491 1492 1492 1493 1493 1492 1492 1491 1491 1490 1490 1489 1487 1486 1485 1484 1483 1481 1480 1477 1475 1472 1470 1468 1466 1464 1463 1461 1459 1458 1457 1457 1459 1461 1463 1464 1466 1467 1469 1471 1473 1476 1479
1492 1493 1494 1494 1494 1494 1494 1493 1493 1492 1492 1491 1490 1488 1487 1486 1485 1483 1481 1479 1476 1474 1471 1469 1467 1465 1463 1461 1459 1457 1455 1455 1456 1458 1460 1463 1465 1467 1469 1471 1474 1476 1479
1493 1494 1495 1496 1496 1496 1496 1496 1495 1495 1495 1494 1493 1492 1490 1489 1487 1485 1483 1481 1479 1476 1474 1472 1470 1468 1465 1463 1460 1457 1456 1454 1454 1455 1457 1459 1462 1465 1467 1469 1472 1474 1476
1493 1494 1495 1496 1497 1497 1498 1498 1498 1498 1497 1496 1495 1494 1493 1491 1489 1487 1485 1483 1481 1479 1477 1475 1473 1471 1469 1467 1464 1461 1458 1456 1455 1453 1454 1456 1459 1461 1464 1466 1468 1470 1472
1492 1494 1495 1496 1497 1498 1498 1499 1499 1499 1499 1498 1497 1496 1494 1493 1491 1489 1487 1485 1483 1482 1480 1478 1477 1475 1473 1470 1467 1465 1462 1459 1458 1456 1455 1455 1456 1458 1460 1463 1464 1466 1468
1491 1493 1495 1496 1497 1498 1499 1499 1500 1500 1499 1499 1498 1497 1495 1494 1492 1491 1489 1487 1485 1484 1483 1481 1479 1477 1475 1472 1470 1468 1465 1464 1462 1461 1460 1458 1458 1457 1459 1460 1461 1462 1463